Wind_Speed
27 26 28 29 29 28 29 28 29 29 29 29 29 28 28 30 30 31 30 31 32 31 30 30 30 29 29 29 29 29 29 28 28 29 29 29 28 28 28 28 27 27 27
28 27 28 29 29 29 29 29 29 30 30 30 29 28 29 30 31 31 31 31 31 31 31 31 30 29 29 28 29 29 29 29 29 30 30 29 28 28 29 29 29 29 28
29 30 30 30 30 29 29 29 29 30 30 30 30 30 30 31 31 30 30 30 31 31 30 30 29 28 28 28 29 29 29 29 29 30 30 30 29 29 29 30 30 29 28
31 31 31 31 30 30 30 29 30 30 30 30 30 30 30 30 30 30 30 30 30 30 29 29 28 28 28 28 28 29 29 29 28 29 29 29 29 29 29 29 29 29 29
30 30 30 31 31 30 30 30 29 29 29 30 30 29 29 29 30 29 29 28 28 27 27 26 27 27 26 27 27 28 28 27 27 27 28 28 28 28 28 27 28 28 28
31 30 31 31 32 31 30 30 29 29 29 29 29 28 28 29 28 28 27 26 26 26 25 25 25 25 25 25 26 27 26 26 26 26 27 27 27 27 26 26 26 27 26
33 32 31 31 32 30 29 29 29 29 28 28 28 28 28 28 28 27 25 25 25 25 25 24 24 24 24 25 26 26 25 24 24 25 26 26 26 26 26 26 25 25 25
33 33 31 31 31 29 28 29 28 28 27 27 28 28 27 27 25 24 24 24 25 24 24 23 23 23 23 24 24 24 23 23 24 25 26 27 26 26 26 25 25 25 24
30 31 31 31 31 30 30 29 28 26 26 27 27 26 26 25 24 23 23 23 24 24 23 23 23 23 22 23 23 23 22 22 22 23 24 24 25 25 25 25 26 26 25
30 30 30 31 30 29 29 28 27 26 25 26 25 24 23 23 23 22 22 22 23 22 22 21 21 21 21 22 22 22 22 22 22 22 22 23 23 23 24 24 25 26 25
31 30 30 30 29 28 27 27 26 26 26 25 24 23 22 21 22 21 22 22 21 21 21 19 19 19 20 20 21 21 21 20 20 20 21 21 22 22 23 24 24 25 25
30 30 29 28 27 27 26 25 25 25 25 24 23 23 22 21 21 21 21 21 21 20 19 18 18 18 19 19 19 19 19 19 19 19 20 20 21 21 22 22 24 25 24
30 29 28 27 26 25 24 24 23 23 23 23 22 22 21 22 21 20 19 19 19 18 18 18 18 18 19 19 18 18 18 18 18 18 18 19 20 22 22 22 23 23 23
29 29 29 27 26 25 23 22 21 22 22 21 20 20 20 20 19 19 19 18 17 17 18 18 18 18 18 18 17 17 17 17 16 16 17 19 20 21 21 22 22 23 23
29 28 28 28 26 25 23 22 21 21 20 19 19 20 19 18 17 17 18 17 17 17 18 17 17 17 17 18 17 16 16 16 16 16 17 18 19 20 20 21 22 23 23
28 28 27 27 26 25 23 22 20 20 20 20 19 19 18 18 17 16 16 16 16 17 17 17 17 16 17 17 17 16 16 17 18 18 18 19 19 19 20 20 21 21 22
28 27 26 26 25 23 23 21 20 20 19 19 19 18 18 18 17 16 16 17 17 16 16 16 15 15 16 16 16 16 16 17 18 19 20 20 19 19 20 21 21 21 21
27 26 25 24 24 22 21 20 20 19 19 18 18 18 18 17 16 16 16 16 15 14 14 15 15 14 14 15 15 16 16 17 18 19 19 20 20 21 21 21 21 20 20
26 24 23 22 22 21 19 19 19 19 19 18 17 18 17 16 15 15 15 15 14 14 14 14 15 14 14 15 16 16 16 17 18 19 19 19 20 19 19 19 18 18 18
24 23 21 21 20 20 19 19 18 18 18 17 17 17 16 15 14 14 13 13 13 13 13 14 15 15 15 15 16 17 17 18 18 19 19 19 19 18 18 17 17 16 16
23 21 20 19 19 18 17 17 17 16 16 16 16 15 14 13 13 12 11 12 13 13 14 15 15 15 16 17 17 17 18 18 17 18 18 18 18 18 17 17 16 16 16
21 20 18 18 16 16 16 16 15 14 14 15 14 13 12 12 11 11 11 11 12 12 13 14 15 15 15 16 16 17 17 17 17 17 18 18 18 18 17 17 16 15 15
19 17 17 15 14 14 14 14 14 13 13 13 12 11 11 11 11 10 10 10 11 12 14 14 14 14 15 15 15 16 16 17 17 17 17 17 18 17 17 16 16 16 16
17 15 14 12 12 13 12 12 13 13 12 12 11 10 10 10 10 10 9 10 11 12 13 14 13 14 14 16 16 16 16 17 17 17 18 18 18 18 17 17 17 17 18
14 13 13 12 12 12 11 11 11 12 12 11 10 9 9 9 9 9 9 9 11 12 13 13 13 15 16 17 17 17 17 17 17 18 18 18 18 18 18 18 18 18 18
13 12 12 11 11 11 10 10 11 11 11 11 10 9 9 9 9 9 9 9 10 12 13 13 14 15 16 17 16 16 17 17 17 18 19 18 18 18 18 18 18 18 19
Wind_Direction
302 302 302 303 301 301 300 298 297 297 295 296 294 295 296 296 295 296 296 295 296 294 294 294 293 291 290 289 286 283 280 279 277 276 275 272 273 273 271 271 271 269 266
302 303 303 303 301 302 300 299 297 295 295 295 298 297 296 296 296 296 296 296 296 294 294 293 292 292 291 290 289 286 282 278 276 275 275 274 272 273 271 271 270 268 265
303 304 304 302 302 302 299 298 297 295 294 296 296 297 298 300 298 298 299 296 296 296 296 295 293 292 291 292 290 287 284 280 277 275 275 273 271 271 270 271 269 268 266
303 304 303 302 301 301 300 299 298 296 295 296 296 297 298 299 301 301 300 298 297 296 296 295 292 291 292 293 291 288 284 281 278 275 274 273 273 273 271 270 269 267 266
304 304 303 302 302 302 302 302 301 298 297 296 296 298 299 300 301 301 301 300 299 297 296 295 294 293 292 294 293 291 286 282 279 276 274 272 272 273 271 270 269 267 265
305 305 304 303 302 301 300 301 301 299 297 297 297 297 299 300 300 301 301 301 300 298 296 295 295 293 292 293 293 292 288 284 282 279 277 274 273 273 272 272 271 267 265
305 305 305 304 304 301 300 300 300 301 300 298 298 297 299 298 298 299 299 299 300 299 298 297 294 293 292 292 292 292 289 285 281 278 277 276 272 273 273 273 272 269 267
305 304 305 304 304 305 304 302 300 300 300 299 299 298 298 298 298 297 297 298 300 299 298 297 295 294 294 294 294 293 290 286 281 278 277 276 274 272 272 272 270 269 267
305 306 307 307 306 303 303 302 301 301 300 300 301 300 300 299 300 298 296 297 300 300 298 297 295 295 295 295 293 292 291 289 286 280 278 276 274 272 270 270 269 268 266
306 306 307 308 309 308 306 306 304 305 304 303 303 304 302 300 302 303 300 298 298 300 299 298 295 294 296 297 294 293 293 290 287 284 281 279 278 274 271 271 269 268 267
309 308 306 307 306 308 308 307 306 303 303 303 302 304 302 300 300 302 302 300 300 301 302 300 299 297 298 299 297 295 295 292 289 288 284 281 279 276 273 273 272 271 270
307 307 307 306 307 308 307 306 304 302 303 302 302 303 303 301 301 302 301 300 301 301 301 301 301 300 302 302 301 297 295 296 294 291 286 284 282 278 277 276 275 274 271
305 307 308 306 304 305 305 303 304 304 304 302 302 304 304 303 302 301 301 302 301 299 300 301 300 301 304 303 300 299 298 299 295 293 290 286 283 280 278 277 277 275 272
304 303 304 306 307 307 305 303 304 307 306 304 304 306 308 306 303 303 303 301 301 300 300 300 301 301 303 305 300 298 300 300 299 297 293 290 287 284 280 280 280 277 273
305 305 305 305 307 309 307 307 305 306 307 306 306 307 309 310 309 307 308 305 301 301 300 300 300 302 303 304 304 300 299 300 302 303 299 295 293 289 287 286 283 279 276
306 306 305 305 305 305 306 305 306 307 307 308 308 309 309 311 311 310 309 308 304 301 301 301 302 304 304 304 303 305 306 304 302 301 302 302 299 296 292 289 288 285 279
306 305 305 305 305 305 305 307 306 308 309 310 311 310 309 310 312 312 310 312 312 309 307 307 305 307 310 306 304 304 301 300 300 300 303 304 300 300 296 292 290 287 284
305 305 307 307 306 305 305 305 307 309 309 309 309 310 310 312 314 313 312 313 315 316 314 312 309 309 313 313 312 309 303 302 302 304 306 304 300 299 297 295 294 291 288
306 306 307 307 308 307 306 305 306 309 310 309 310 311 311 312 312 312 314 314 314 315 316 319 314 312 315 319 313 315 313 310 307 308 310 311 308 305 302 300 298 296 293
306 305 305 306 307 308 307 305 305 308 310 310 312 314 315 315 312 310 313 315 317 318 319 321 320 318 318 319 320 317 316 316 313 312 315 316 315 311 306 301 299 297 296
308 306 306 307 310 311 309 308 307 310 312 313 315 316 316 317 317 317 316 317 319 320 319 321 322 323 321 318 321 319 319 320 320 317 317 318 318 316 310 304 302 302 300
308 308 308 309 310 312 312 311 310 313 316 317 317 317 319 323 322 321 324 325 326 326 324 323 323 323 322 323 322 321 321 323 322 320 319 317 318 318 317 314 311 306 303
307 308 309 311 312 315 316 313 311 314 319 322 320 318 321 326 327 326 330 329 329 328 326 325 326 327 329 329 328 325 324 325 326 326 324 321 320 319 319 316 312 310 308
307 307 309 313 316 318 318 315 313 316 320 323 321 318 324 329 330 327 328 333 335 334 333 331 331 331 332 334 331 330 329 328 329 329 327 324 322 320 318 317 315 312 309
310 310 310 314 317 318 318 317 318 321 322 321 322 322 325 329 333 332 332 336 337 337 335 334 334 332 332 332 331 331 330 330 329 328 327 326 325 323 318 316 315 313 310
314 312 313 316 316 318 319 321 323 324 325 325 323 322 327 331 339 341 335 336 336 335 336 336 336 335 336 337 336 334 334 334 334 331 329 328 326 324 323 321 319 316 314
Height
5845 5842 5840 5836 5833 5830 5828 5826 5823 5820 5817 5815 5813 5811 5809 5807 5805 5802 5800 5799 5797 5795 5793 5791 5790 5788 5787 5786 5784 5783 5783 5782 5782 5782 5782 5783 5783 5783 5784 5784 5784 5785 5785
5840 5838 5834 5831 5828 5824 5822 5820 5817 5814 5811 5809 5806 5805 5803 5801 5798 5795 5794 5792 5790 5788 5786 5785 5783 5781 5780 5778 5778 5776 5776 5775 5775 5775 5774 5775 5776 5775 5776 5776 5777 5777 5778
5834 5832 5829 5826 5822 5819 5816 5813 5811 5809 5806 5803 5801 5799 5797 5795 5792 5790 5787 5785 5783 5781 5779 5777 5776 5774 5773 5772 5770 5769 5769 5768 5767 5767 5767 5767 5767 5768 5768 5768 5768 5769 5770
5830 5827 5823 5820 5816 5813 5810 5807 5805 5802 5800 5797 5794 5792 5790 5788 5786 5783 5780 5778 5775 5773 5771 5770 5769 5767 5766 5764 5763 5762 5761 5760 5760 5759 5759 5759 5759 5759 5760 5760 5760 5761 5762
5824 5821 5817 5813 5810 5807 5804 5801 5798 5795 5793 5791 5788 5785 5784 5782 5779 5777 5774 5771 5768 5766 5764 5763 5761 5760 5759 5757 5756 5755 5753 5753 5752 5752 5751 5751 5751 5751 5751 5752 5752 5752 5753
5818 5815 5811 5807 5803 5800 5798 5795 5792 5789 5786 5784 5782 5779 5777 5775 5773 5770 5767 5765 5762 5760 5758 5757 5755 5754 5752 5751 5750 5748 5746 5745 5745 5744 5744 5744 5744 5744 5744 5744 5744 5745 5745
5812 5808 5805 5801 5797 5793 5791 5788 5785 5782 5780 5778 5775 5773 5771 5769 5767 5764 5762 5759 5757 5754 5752 5751 5749 5748 5746 5745 5743 5742 5740 5739 5738 5737 5737 5736 5736 5737 5737 5737 5737 5738 5738
5806 5801 5797 5794 5790 5787 5785 5782 5779 5776 5774 5772 5769 5767 5765 5763 5761 5758 5756 5754 5751 5749 5747 5745 5743 5742 5741 5739 5737 5736 5734 5732 5731 5731 5730 5730 5730 5730 5730 5730 5730 5731 5731
5800 5795 5791 5787 5784 5781 5778 5775 5772 5770 5768 5766 5763 5761 5759 5757 5755 5753 5751 5748 5746 5744 5741 5740 5738 5737 5735 5733 5732 5730 5728 5727 5725 5725 5724 5723 5723 5723 5723 5723 5723 5724 5725
5793 5789 5785 5781 5778 5775 5771 5768 5766 5764 5762 5761 5758 5755 5753 5751 5749 5747 5745 5743 5741 5738 5736 5734 5732 5731 5730 5728 5726 5724 5723 5721 5720 5719 5718 5717 5717 5717 5717 5717 5717 5717 5718
5787 5783 5780 5776 5772 5769 5766 5764 5762 5760 5758 5755 5753 5750 5748 5746 5744 5743 5740 5738 5736 5734 5731 5729 5728 5726 5725 5723 5721 5719 5718 5716 5714 5713 5712 5711 5711 5711 5711 5711 5711 5711 5711
5782 5778 5774 5771 5767 5764 5762 5759 5757 5754 5752 5750 5748 5746 5743 5741 5739 5737 5736 5733 5731 5729 5727 5725 5724 5722 5720 5718 5716 5715 5713 5711 5709 5708 5707 5706 5705 5705 5705 5705 5705 5704 5704
5776 5773 5769 5765 5762 5760 5757 5754 5752 5750 5747 5745 5743 5741 5739 5736 5734 5732 5730 5729 5726 5725 5723 5721 5720 5718 5716 5714 5712 5710 5708 5706 5705 5703 5702 5701 5701 5700 5699 5699 5698 5698 5697
5770 5767 5764 5760 5757 5754 5752 5750 5747 5745 5742 5740 5738 5736 5734 5731 5729 5727 5726 5723 5722 5720 5719 5717 5715 5713 5711 5709 5707 5706 5704 5702 5701 5699 5698 5696 5695 5694 5693 5692 5691 5691 5691
5764 5761 5758 5755 5752 5749 5747 5745 5742 5740 5737 5735 5733 5731 5729 5726 5724 5722 5721 5719 5717 5716 5714 5713 5711 5709 5707 5705 5703 5702 5700 5699 5697 5695 5694 5692 5691 5689 5688 5687 5686 5685 5684
5758 5755 5752 5749 5747 5745 5742 5740 5738 5735 5733 5731 5729 5727 5724 5722 5720 5718 5716 5715 5713 5712 5710 5708 5706 5704 5703 5701 5699 5698 5696 5694 5693 5692 5690 5688 5686 5684 5683 5682 5680 5679 5678
5752 5749 5746 5744 5741 5739 5737 5735 5733 5730 5728 5726 5724 5722 5720 5718 5716 5714 5713 5711 5708 5707 5706 5704 5702 5700 5698 5697 5695 5694 5692 5691 5690 5688 5686 5684 5682 5680 5678 5676 5675 5673 5672
5746 5743 5741 5738 5736 5734 5731 5729 5728 5726 5724 5722 5720 5718 5716 5714 5712 5710 5709 5707 5705 5703 5702 5701 5699 5697 5695 5694 5692 5690 5688 5686 5685 5684 5681 5679 5677 5675 5673 5671 5669 5667 5666
5740 5738 5735 5733 5731 5729 5727 5725 5724 5722 5719 5717 5716 5714 5711 5710 5708 5707 5705 5704 5702 5701 5699 5698 5696 5694 5693 5691 5689 5687 5685 5683 5681 5679 5677 5674 5672 5670 5668 5666 5664 5662 5661
5735 5733 5731 5729 5726 5725 5723 5721 5719 5717 5715 5714 5712 5710 5708 5706 5705 5703 5702 5701 5700 5699 5697 5696 5694 5692 5690 5688 5686 5684 5682 5680 5677 5675 5673 5670 5668 5665 5663 5661 5659 5657 5656
5730 5728 5727 5724 5722 5720 5719 5717 5715 5714 5712 5710 5708 5707 5705 5704 5702 5701 5700 5699 5697 5696 5695 5694 5692 5690 5688 5686 5683 5681 5679 5677 5674 5672 5669 5666 5664 5661 5659 5656 5654 5653 5651
5727 5725 5723 5721 5719 5717 5715 5714 5712 5711 5709 5707 5706 5704 5703 5701 5700 5699 5698 5697 5695 5694 5693 5691 5690 5688 5686 5683 5681 5678 5676 5673 5671 5668 5665 5663 5660 5657 5655 5652 5650 5648 5647
5723 5721 5719 5717 5716 5714 5713 5711 5710 5708 5707 5705 5703 5702 5701 5700 5698 5697 5696 5695 5694 5693 5691 5690 5688 5686 5683 5681 5678 5676 5673 5670 5667 5665 5662 5659 5657 5654 5651 5649 5646 5644 5642
5720 5718 5717 5715 5714 5712 5711 5709 5708 5706 5705 5703 5702 5700 5699 5698 5697 5696 5695 5694 5693 5691 5689 5688 5686 5684 5681 5678 5676 5673 5670 5668 5665 5662 5659 5656 5653 5651 5648 5645 5643 5640 5638
5717 5716 5714 5713 5712 5710 5709 5708 5706 5705 5703 5702 5700 5699 5698 5697 5696 5694 5693 5692 5691 5689 5688 5686 5683 5681 5679 5676 5673 5670 5668 5665 5662 5659 5656 5653 5650 5647 5644 5642 5639 5636 5634
5715 5714 5712 5711 5710 5709 5708 5707 5705 5704 5702 5700 5699 5698 5697 5696 5695 5693 5692 5691 5690 5688 5686 5684 5682 5679 5677 5674 5671 5668 5665 5662 5659 5656 5653 5649 5646 5643 5640 5637 5634 5632 5629